This is the latest recevied weather packets stored in our database for station/object TA2NC-13. If no packets are shown the sender has not sent any weather packets the latest 10 day(s).
| Time | Temp. | Humidity | Pressure | Rain* | Wind** | Luminosity | Snow |
|---|---|---|---|---|---|---|---|
| 1777971000 | 10.56° C | 71% | 1011 hPa | 0 mm | - | - | - |
| 1777970400 | 10° C | 63% | 1011 hPa | 0 mm | - | - | - |
| 1777969800 | 10° C | 67% | 1011 hPa | 0 mm | - | - | - |
| 1777969200 | 8.89° C | 68% | 1011 hPa | 0 mm | - | - | - |
| 1777968600 | 10° C | 67% | 1011 hPa | 0 mm | - | - | - |
| 1777968000 | 9.44° C | 66% | 1011 hPa | 0 mm | - | - | - |
| 1777967400 | 10° C | 64% | 1011 hPa | 0 mm | - | - | - |
| 1777966800 | 8.89° C | 72% | 1011 hPa | 0 mm | - | - | - |
| 1777966200 | 7.78° C | 71% | 1011 hPa | 0 mm | - | - | - |
| 1777965600 | 7.78° C | 73% | 1011 hPa | 0 mm | - | - | - |
| 1777965001 | 7.22° C | 72% | 1011 hPa | 0 mm | - | - | - |
| 1777964400 | 7.78° C | 71% | 1011 hPa | 0 mm | - | - | - |
| 1777963800 | 7.22° C | 72% | 1011 hPa | 0 mm | - | - | - |
| 1777963200 | 7.22° C | 70% | 1011 hPa | 0 mm | - | - | - |
| 1777962600 | 7.78° C | 68% | 1011 hPa | 0 mm | - | - | - |
| 1777962000 | 8.33° C | 70% | 1011 hPa | 0 mm | - | - | - |
| 1777961400 | 7.78° C | 71% | 1011 hPa | 0 mm | - | - | - |
| 1777960801 | 6.67° C | 74% | 1011 hPa | 0 mm | - | - | - |
| 1777960200 | 5.56° C | 78% | 1011 hPa | 0 mm | - | - | - |
| 1777959600 | 5.56° C | 80% | 1011 hPa | 0 mm | - | - | - |
| 1777959000 | 5.56° C | 82% | 1011 hPa | 0 mm | - | - | - |
| 1777958400 | 5° C | 83% | 1011 hPa | 0 mm | - | - | - |
| 1777957800 | 4.44° C | 84% | 1011 hPa | 0 mm | - | - | - |
| 1777957200 | 4.44° C | 82% | 1011 hPa | 0 mm | - | - | - |
| 1777956600 | 4.44° C | 85% | 1011 hPa | 0 mm | - | - | - |
* Rain latest hour (hover to see other rain measurements)
** Current wind speed in m/s (hover to see current wind gust speed)